Home > Weather > Overland Park > Past weeks

Flag for USA Past Weather in Overland Park, Kansas, USA — Yesterday and Last 2 Weeks

Now
80 °F

Sunny.


Feels Like: 84 °F
Forecast: 74 / 88 °F
Wind: 12 mph from Southwest

Location: Johnson County Executive Airport

Current Time: Aug 24, 2016 at 1:15:53 PM

Latest Report: Aug 24, 2016 at 11:53 AM


Visibility: 10 mi

Pressure: 29.99 "Hg

Humidity: 76%

Dew Point: 72 °F

Location of Overland ParkLocation

Past Weather in Overland Park — Graph

°F

Overland Park Temperature Yesterday

Maximum temperature yesterday: 84 °F (at 3:53 PM)
Minimum temperature yesterday: 63 °F (at 3:53 AM)
Average temperature yesterday: 74 °F

High & Low Weather Summary for the Past Weeks

 TemperatureHumidityPressure
High95 °F (Aug 11, 3:53 PM)100% (Aug 16, 6:57 AM)30.14 "Hg (Aug 16, 6:57 AM)
Low57 °F (Aug 21, 6:53 AM)29% (Aug 14, 4:53 PM)29.73 "Hg (Aug 19, 5:53 PM)
Average76 °F73%29.96 "Hg
* Reported Aug 9 11:53 AM — Aug 24 11:53 AM, Overland Park, Weather by CustomWeather, © 2016

Note: Actual official high and low records may vary slightly from our data, if they occured in-between our weather recording intervals... More about our weather records

Advertising

Overland Park Weather History for the Previous 24 Hours

Scroll right to see more
 ConditionsComfort  
Time TempWeatherWind HumidityBarometerVisibility
11:53 AM
Wed, Aug 24
80 °FSunny.12 mph76%29.99 "Hg10 mi
10:53 AM80 °FSunny.16 mph79%29.97 "Hg10 mi
9:53 AM76 °FScattered clouds.8 mph85%29.96 "Hg10 mi
8:59 AM73 °FLight rain. Scattered clouds.10 mph90%29.99 "Hg10 mi
8:53 AM73 °FPassing clouds.10 mph88%29.96 "Hg10 mi
7:53 AM69 °FSunny.12 mph93%29.95 "Hg10 mi
6:53 AM68 °FPassing clouds.8 mph93%29.97 "Hg10 mi
5:53 AM68 °FMostly cloudy.10 mph93%29.98 "Hg10 mi
5:03 AM73 °FMostly cloudy.12 mph90%30.00 "Hg10 mi
4:53 AM73 °FThunderstorms. Mostly cloudy.13 mph94%29.96 "Hg10 mi
3:53 AM75 °FPassing clouds.13 mph85%29.91 "Hg10 mi
2:53 AM76 °FPassing clouds.12 mph82%29.91 "Hg10 mi
1:53 AM77 °FPassing clouds.15 mph79%29.90 "Hg10 mi
12:53 AM77 °FClear.16 mph79%29.88 "Hg10 mi
11:53 PM
Tue, Aug 23
78 °FClear.21 mph76%29.90 "Hg10 mi
10:53 PM77 °FClear.16 mph79%29.93 "Hg10 mi
9:53 PM78 °FPassing clouds.14 mph79%29.92 "Hg10 mi
8:53 PM79 °FMostly cloudy.12 mph77%29.93 "Hg10 mi
7:53 PM80 °FMostly cloudy.10 mph74%29.93 "Hg10 mi
6:53 PM81 °FBroken clouds.16 mph72%29.93 "Hg10 mi
5:53 PM82 °FPartly sunny.20 mph72%29.93 "Hg10 mi
4:53 PM82 °FBroken clouds.14 mph72%29.94 "Hg10 mi
3:53 PM84 °FBroken clouds.15 mph70%29.94 "Hg10 mi
2:53 PM82 °FCloudy.17 mph72%29.97 "Hg10 mi
1:53 PM80 °FCloudy.17 mph76%29.98 "Hg10 mi
Weather by CustomWeather, © 2016

See weather overviewHow to use our weather pages